Theta_e
340 336 324 319 307 308 303 308 312 310 306 309 311 309 304 305 304 302 318 325 340 338 343 350 354 354 353 353 352 351 351 350 348 347 346 343 341 340 339 339 337 336 336 336 336 337 342 345 342
327 323 318 320 306 301 304 313 312 307 310 311 311 310 307 306 314 316 317 324 340 341 344 346 354 354 354 353 352 352 352 351 349 348 347 344 342 341 341 340 340 340 339 338 338 337 340 343 345
328 325 316 311 306 302 306 312 314 312 311 310 309 312 312 309 315 319 321 323 335 339 340 344 354 354 355 354 353 353 353 351 348 346 345 345 344 344 343 341 342 341 341 340 339 338 337 341 343
324 325 319 305 302 309 309 312 315 310 311 312 311 308 314 318 317 321 324 324 322 327 341 350 353 354 355 353 353 353 351 349 347 344 344 341 340 344 343 340 340 340 341 341 340 339 338 339 342
326 318 305 303 306 311 312 316 316 308 309 309 310 309 309 317 321 321 321 320 320 330 340 347 353 352 350 347 347 348 344 342 340 340 340 340 340 339 340 340 340 340 340 340 340 340 340 341 341
314 312 300 300 305 311 313 314 315 311 311 308 309 310 310 317 318 318 320 318 321 327 331 336 347 347 347 348 348 346 342 338 336 336 335 335 337 337 338 338 338 338 338 338 339 340 341 341 339
311 306 302 304 305 307 312 316 314 314 310 308 311 307 311 314 317 318 318 319 319 323 328 330 334 340 348 347 346 342 337 334 334 333 333 333 334 334 335 335 336 336 337 337 339 340 340 341 340
314 308 304 305 304 305 312 316 316 313 311 316 315 307 307 314 318 318 317 317 316 318 318 320 328 331 331 333 342 338 335 335 335 334 334 334 333 333 333 334 334 336 337 337 339 339 338 340 339
320 305 302 304 305 307 312 308 313 316 313 314 314 312 317 319 318 315 313 312 313 317 315 316 319 322 325 326 331 338 338 337 336 335 335 331 325 325 328 331 334 337 337 337 338 338 338 339 338
313 303 306 311 311 309 310 308 310 312 312 313 314 316 319 319 315 313 311 311 312 316 318 319 322 324 326 330 327 328 328 329 328 327 325 323 323 323 328 330 334 335 336 337 337 338 337 336 328
312 306 310 312 313 313 312 308 311 310 307 312 310 312 315 315 313 311 311 311 314 316 318 320 322 326 325 325 326 325 325 325 325 325 325 324 325 323 323 324 325 325 332 329 333 332 330 329 326
309 312 313 313 315 313 309 311 310 311 310 315 314 315 313 312 311 311 311 313 315 315 319 324 326 325 326 327 325 324 325 324 323 325 326 324 323 323 323 324 323 324 325 325 326 326 326 326 326
311 312 315 316 315 311 312 310 311 310 315 317 314 314 312 311 312 312 313 317 316 315 319 323 324 325 328 327 325 325 325 325 325 325 325 326 324 323 322 323 323 322 323 325 324 325 326 325 325
313 312 312 314 313 310 309 311 311 311 316 312 312 310 310 310 313 313 315 315 316 315 320 322 324 326 326 325 324 326 327 327 326 325 326 327 327 322 322 322 322 322 322 324 324 325 326 325 323
309 305 309 311 311 308 312 307 307 312 313 312 310 310 311 312 315 314 315 316 316 315 321 322 322 324 324 324 326 327 327 328 327 326 327 326 327 323 322 323 323 322 322 323 324 324 325 325 327
303 303 300 306 309 310 308 301 309 312 311 311 312 312 312 312 312 314 318 318 316 318 320 322 326 322 325 325 326 327 327 327 327 327 326 326 328 325 323 323 324 323 322 322 323 323 324 326 326
300 295 298 302 309 309 307 303 310 312 311 310 311 311 312 312 312 318 321 320 317 318 319 321 323 323 325 324 326 326 328 327 327 327 324 324 326 327 324 323 324 323 323 321 323 322 323 322 323
294 295 300 300 306 307 306 306 309 311 310 309 310 311 313 312 314 319 321 321 318 320 321 322 322 323 324 324 326 326 327 327 327 326 324 324 323 326 325 324 323 323 321 321 321 321 322 322 321
301 299 299 304 308 306 306 307 308 310 310 308 309 310 312 313 315 319 321 321 319 319 321 322 322 321 322 324 323 323 322 325 327 328 327 325 325 326 324 324 323 324 320 320 321 320 322 321 321
302 299 298 303 307 307 306 305 307 310 308 309 309 309 309 313 314 317 319 318 317 317 319 323 321 322 324 325 326 326 326 327 326 326 328 328 327 326 325 325 323 323 322 323 321 320 318 319 322
301 300 299 299 305 306 303 299 303 309 309 310 311 310 312 313 313 316 318 316 317 317 319 321 322 324 326 326 326 325 325 325 324 324 326 325 329 327 326 325 323 323 323 322 321 320 319 318 322
297 305 304 302 301 294 303 290 299 303 305 308 309 308 311 313 315 316 318 316 316 318 319 322 324 325 328 326 324 322 320 319 323 325 326 325 329 327 327 325 324 323 322 322 323 323 320 320 319
300 306 304 303 300 297 297 292 296 303 302 305 305 308 312 313 314 315 317 318 319 318 320 321 323 325 326 326 325 323 322 323 323 321 321 321 323 327 328 326 324 323 323 323 325 322 321 322 323
306 304 303 302 300 290 296 295 295 299 303 303 306 310 313 313 314 317 319 319 318 318 319 323 323 324 325 325 325 323 322 323 321 319 320 321 325 326 327 327 325 323 323 324 325 323 322 318 322
304 298 291 287 288 286 298 295 296 303 307 305 308 311 312 314 315 316 317 316 315 316 319 321 321 320 322 324 324 324 323 322 321 319 320 320 322 323 324 325 324 325 323 326 325 323 324 323 323
299 299 291 284 286 289 299 292 298 307 309 308 312 312 313 313 315 315 316 315 314 316 319 320 320 319 321 323 323 324 324 323 321 321 322 322 322 324 326 326 326 326 327 327 326 324 324 325 326
299 296 301 293 294 289 294 300 304 305 305 306 311 312 311 312 314 315 316 314 314 315 317 318 320 318 321 323 322 323 324 324 324 323 324 323 325 328 326 328 326 326 326 326 326 326 327 327 325
301 304 295 292 286 283 292 295 297 302 302 308 311 310 311 312 313 315 315 314 314 315 316 319 320 318 320 322 322 322 325 326 326 325 324 324 325 323 325 328 327 327 327 328 328 327 325 326 326
298 298 297 295 292 286 286 291 302 301 306 308 310 312 312 312 313 314 314 315 315 316 317 319 318 318 317 319 319 321 322 325 326 324 326 323 326 326 328 328 326 327 328 328 327 326 324 323 323
302 299 297 293 290 293 291 293 306 307 310 311 312 314 312 311 312 314 314 313 314 315 316 318 318 318 317 319 318 320 323 324 325 325 325 326 324 326 327 328 328 328 326 325 325 325 325 323 320
Wind_Speed
7 5 2 2 3 2 6 9 6 5 4 4 7 7 9 6 5 6 5 12 16 14 12 14 18 18 16 15 13 11 11 11 12 11 11 9 10 10 9 7 6 5 6 8 10 10 10 10 8
5 6 3 3 3 1 6 10 16 2 7 7 8 5 10 4 6 10 7 11 16 15 12 13 19 19 17 16 14 12 11 12 12 11 10 11 11 12 12 10 10 9 9 9 11 11 11 8 9
4 6 2 4 4 6 5 5 21 9 5 5 4 6 7 9 9 9 8 12 16 14 14 13 18 16 13 12 11 11 12 12 11 12 11 11 12 13 13 13 13 12 13 12 11 12 11 11 8
2 3 4 1 10 13 4 8 8 2 5 7 6 7 5 6 6 10 10 10 8 11 11 13 14 12 10 10 9 9 9 8 9 10 9 9 11 11 11 13 15 15 15 15 13 12 12 10 10
3 3 4 6 13 16 2 8 8 4 8 3 6 5 7 3 11 10 9 7 13 8 9 9 14 13 12 11 10 8 6 5 3 4 7 9 11 12 12 14 14 15 16 16 16 14 12 9 7
3 1 2 7 15 9 4 5 9 7 6 4 7 6 5 7 9 9 10 8 12 12 10 9 15 15 14 13 12 12 10 8 8 8 8 9 11 13 14 15 16 17 18 18 17 15 13 9 5
4 2 7 11 16 14 4 8 1 12 5 3 5 4 5 8 10 9 9 9 9 11 13 9 10 13 15 13 11 11 12 11 10 8 8 9 11 13 15 16 17 18 19 19 18 16 15 9 7
4 2 11 13 12 18 3 10 9 7 3 9 9 5 6 7 10 10 9 9 9 9 8 9 7 5 6 6 13 15 13 14 12 9 9 9 9 11 13 14 16 18 18 18 18 16 15 10 8
13 7 12 16 16 17 10 5 5 6 2 2 7 8 12 13 10 8 7 5 5 7 6 7 8 8 7 7 8 12 16 14 11 9 8 2 3 6 9 9 13 17 17 17 15 17 15 11 10
10 6 19 15 17 16 10 7 6 6 8 6 6 8 14 13 9 9 7 8 5 7 6 7 8 7 6 2 4 5 6 5 5 5 3 3 3 4 7 10 13 11 13 17 14 15 16 13 4
16 15 17 18 19 16 15 10 9 10 4 2 10 11 12 9 8 9 9 6 9 8 6 6 7 7 5 1 2 2 3 2 2 4 4 4 3 4 4 3 3 2 6 2 7 7 5 5 5
19 21 21 22 19 15 7 7 12 10 7 4 9 16 10 9 10 10 8 8 8 8 8 8 8 6 4 3 0 3 1 1 3 4 5 4 3 4 3 2 3 2 3 4 4 4 5 6 7
23 22 22 21 18 10 5 9 16 16 5 2 8 11 11 10 9 8 7 10 9 9 8 8 6 5 4 3 3 2 2 3 4 3 4 4 5 4 3 3 3 3 2 4 4 5 5 7 6
21 17 19 19 16 8 8 15 16 11 7 8 8 9 9 10 11 7 9 8 9 8 8 7 5 5 4 5 4 4 3 5 4 4 4 6 4 4 3 3 3 3 4 4 6 5 4 4 5
19 21 22 18 12 14 13 17 15 10 8 10 10 10 10 10 13 14 12 11 10 8 9 7 4 3 4 4 5 4 4 4 4 4 4 4 3 5 4 4 4 4 4 5 5 4 3 3 5
17 16 16 10 12 20 10 20 15 10 9 9 10 10 10 13 14 10 13 12 10 10 9 6 3 3 2 1 2 2 3 3 3 4 2 3 3 4 5 4 4 4 4 4 4 3 3 4 4
9 12 14 16 18 22 11 19 17 11 8 8 10 9 11 10 6 12 14 13 10 9 9 6 4 1 1 3 3 3 2 2 3 2 2 3 4 5 4 4 3 5 4 4 4 3 3 3 3
12 9 13 19 23 18 14 13 8 10 10 11 9 9 9 10 15 16 15 13 10 9 9 7 3 2 1 3 3 2 1 2 2 2 2 4 4 5 4 2 3 3 4 4 3 4 2 2 4
14 14 20 22 19 17 6 21 9 10 6 7 10 9 8 10 10 15 13 12 10 9 9 6 4 2 1 1 2 1 1 2 1 2 3 6 5 6 3 3 4 3 5 4 4 3 4 4 4
17 19 22 23 19 4 15 20 13 8 7 9 10 10 4 12 13 13 13 8 9 9 9 6 4 3 1 1 1 1 2 3 2 2 2 2 5 6 4 4 4 4 4 5 3 4 2 2 2
21 20 21 19 21 16 5 5 5 5 5 7 12 8 16 21 18 14 14 11 9 9 8 7 5 4 2 2 1 3 3 3 3 1 1 3 2 3 3 3 4 4 4 7 5 5 5 3 1
21 18 21 21 16 9 1 6 4 6 10 10 12 10 16 18 15 14 13 10 9 8 8 7 6 4 3 3 3 3 1 2 2 1 2 3 4 2 3 4 4 5 3 5 5 5 4 5 4
22 15 19 21 15 7 5 2 6 4 8 14 4 11 14 17 19 16 13 11 9 8 8 7 7 5 5 3 3 3 3 2 2 2 3 2 2 2 3 3 5 5 4 4 7 6 6 4 3
24 17 16 16 11 4 6 7 9 6 9 5 3 10 16 14 13 13 12 11 8 8 8 7 7 4 2 4 6 6 5 5 4 4 3 2 2 2 3 4 4 4 4 5 5 6 7 5 4
20 14 9 4 3 7 5 4 10 10 7 7 10 13 12 15 16 15 14 10 9 9 8 7 8 5 2 6 6 6 4 5 4 3 3 4 2 1 3 3 3 3 4 4 5 6 6 6 4
19 15 8 7 5 5 6 8 13 14 10 9 14 14 13 14 14 13 14 10 10 9 9 8 8 6 4 6 5 5 4 2 2 1 2 2 2 2 3 4 5 4 6 5 5 4 4 6 5
16 13 13 5 1 2 5 7 6 7 8 10 14 13 12 13 13 14 13 11 9 9 9 8 8 6 7 7 4 5 4 3 3 1 3 2 2 2 4 5 6 5 6 5 6 5 7 8 7
22 7 7 1 8 6 5 6 7 7 10 10 11 11 10 10 12 12 12 10 8 9 7 7 8 8 7 7 5 4 5 3 3 3 4 4 3 3 4 6 6 6 6 10 9 9 9 10 7
12 11 4 8 7 6 2 8 8 12 9 14 12 13 14 13 12 12 10 9 10 8 8 7 7 8 7 6 5 5 4 5 6 5 4 5 4 3 6 5 6 7 9 11 10 11 10 12 9
14 11 8 9 6 5 6 7 9 8 12 13 13 13 10 11 11 11 11 10 11 9 8 8 6 8 7 6 5 5 6 6 5 6 4 4 6 6 5 6 7 7 9 9 11 11 9 11 12
Wind_Direction
171 173 202 279 32 131 261 291 325 38 63 95 87 83 94 103 95 181 204 112 124 144 163 170 170 173 180 186 188 192 199 207 217 223 231 227 236 251 262 271 280 276 275 275 271 270 271 266 263
192 183 251 267 165 295 281 316 309 128 151 124 122 134 89 63 92 127 113 140 149 153 158 172 178 180 185 188 189 194 206 215 220 227 227 229 237 245 254 259 269 269 264 264 268 262 264 269 266
289 243 323 189 214 216 243 274 328 347 134 142 150 97 114 142 120 144 162 138 145 164 167 171 179 181 185 191 194 201 213 221 221 233 228 232 236 243 248 255 259 265 267 260 260 264 257 264 262
234 288 283 223 256 262 246 264 274 336 314 175 127 111 55 156 119 148 160 152 142 114 143 159 167 168 174 189 198 215 226 229 232 238 234 240 248 249 247 252 256 258 261 264 259 258 256 259 269
228 258 231 270 265 267 337 268 249 345 312 96 138 109 105 68 114 130 130 121 108 105 119 135 147 152 165 181 188 193 162 161 196 249 258 258 258 258 259 259 257 258 255 256 254 247 245 247 268
299 158 303 276 287 311 230 58 354 326 324 17 52 109 163 142 125 152 139 135 121 140 141 153 157 165 172 180 181 180 180 191 212 230 245 254 260 260 259 258 258 259 256 255 248 239 238 230 242
212 301 263 279 291 311 315 61 180 279 244 98 126 107 150 158 171 152 131 127 123 138 153 162 169 178 177 181 177 181 190 203 215 226 246 260 266 269 267 264 261 255 251 252 247 231 230 212 219
229 222 277 278 286 287 298 181 199 228 132 175 145 147 187 209 158 134 137 147 163 167 174 172 157 147 162 174 185 197 199 213 210 213 223 239 246 271 274 271 268 260 252 250 247 226 226 207 207
249 254 262 267 276 280 319 342 325 332 203 215 188 146 157 152 145 141 164 172 179 191 147 117 132 121 132 152 207 205 215 220 213 214 237 212 203 246 264 276 280 248 250 243 233 217 218 212 208
228 234 251 258 267 279 301 325 319 350 309 259 79 92 137 150 163 160 178 187 164 108 112 112 113 110 91 32 34 196 239 206 192 211 227 202 225 251 272 271 281 277 247 228 218 209 213 209 186
238 239 253 257 261 275 286 327 306 305 312 341 168 150 156 167 163 179 197 173 149 131 120 124 108 107 108 90 342 333 343 124 191 221 223 207 219 250 269 288 282 270 268 217 206 197 201 188 195
248 242 245 255 260 260 248 290 292 275 245 298 124 163 163 170 184 183 188 150 120 115 114 106 108 113 139 141 320 289 123 222 246 239 237 194 223 241 250 247 268 246 227 195 185 187 178 209 214
244 247 252 259 266 243 254 262 263 267 258 146 147 148 171 187 187 195 141 131 128 113 111 109 110 132 160 160 219 244 268 271 270 251 271 212 206 226 234 258 246 237 227 185 192 194 191 210 222
256 260 262 259 267 254 259 264 261 252 241 158 167 169 173 182 183 137 129 138 117 125 117 119 120 161 164 193 220 233 237 246 248 265 260 280 188 208 219 240 241 243 213 203 189 200 206 214 210
269 272 273 270 270 266 254 260 256 247 211 203 197 204 201 187 163 174 160 147 138 135 124 128 185 174 200 240 235 234 246 239 244 254 258 261 219 218 222 237 237 235 215 203 183 194 209 220 219
280 280 266 259 270 267 240 259 244 234 213 235 215 210 192 210 187 164 151 131 130 117 121 130 105 92 72 355 295 255 241 246 256 252 241 244 271 232 225 229 237 220 190 176 177 170 202 223 189
256 257 267 266 249 261 241 253 250 195 220 234 233 220 213 213 146 145 139 133 131 128 122 116 110 14 112 330 304 274 273 276 276 283 228 234 258 274 237 216 247 201 173 170 173 196 176 191 186
230 257 255 256 256 255 261 302 191 209 202 230 247 230 224 181 159 145 136 134 132 127 118 122 151 188 92 314 306 286 330 297 257 282 220 213 242 263 261 233 239 171 158 160 155 185 190 192 177
233 241 249 255 253 246 338 269 257 219 204 225 244 246 233 155 137 133 132 131 125 122 126 152 168 213 119 347 315 317 254 273 235 240 246 218 225 241 254 207 215 184 156 166 171 163 186 228 157
242 243 258 272 277 173 219 253 247 202 213 218 234 246 227 123 131 131 131 125 131 135 142 156 173 153 67 158 257 212 267 268 225 238 296 280 235 225 236 202 203 189 139 142 175 179 116 134 146
235 235 248 258 279 285 263 306 304 260 246 273 252 220 140 146 147 148 143 141 140 142 145 160 164 140 131 33 23 340 352 334 353 336 327 299 285 181 190 196 172 182 150 161 191 159 126 119 353
238 228 235 251 261 261 273 285 294 308 300 297 282 137 143 150 149 148 147 144 143 145 148 144 145 165 135 83 65 79 63 305 279 283 12 357 10 201 171 160 176 177 157 156 151 140 123 125 130
238 226 229 239 248 244 277 296 250 252 293 283 196 147 156 154 152 155 144 140 146 139 146 146 144 154 162 121 103 75 23 304 335 16 61 6 344 334 173 151 146 162 154 143 136 132 125 119 130
230 236 239 239 236 236 217 181 264 233 234 187 138 125 147 137 135 130 139 138 138 137 139 142 151 178 150 125 78 75 45 29 39 22 25 1 351 310 169 155 133 142 114 155 163 136 135 132 156
218 218 237 299 243 211 216 286 252 260 231 171 139 126 135 136 139 140 144 142 135 145 150 154 153 165 168 111 90 104 82 66 61 6 360 9 356 80 117 131 136 140 145 164 159 141 147 159 157
222 198 195 209 183 246 242 239 258 227 213 129 139 139 130 133 142 143 142 141 145 150 155 166 160 160 143 116 113 126 98 148 115 355 357 30 39 118 150 167 166 146 147 164 128 116 123 118 115
232 205 190 169 276 204 229 230 340 118 129 119 130 126 135 140 143 144 145 143 148 149 167 164 157 160 139 128 129 144 145 153 151 125 22 54 74 62 81 134 141 154 145 116 101 103 99 87 89
209 184 149 64 196 250 294 296 227 155 175 124 126 136 134 137 139 144 144 144 152 153 164 147 144 150 156 154 156 149 174 153 108 83 72 65 84 59 56 105 111 122 118 107 105 98 99 106 104
222 209 142 133 148 169 233 273 231 168 149 142 143 148 147 150 144 146 144 145 149 148 148 144 144 139 138 121 132 111 101 98 90 85 76 69 80 86 53 80 111 111 111 114 106 112 107 116 109
213 178 154 174 220 200 179 261 149 136 143 140 145 147 139 142 142 147 142 141 147 152 152 154 158 145 152 148 127 117 102 95 96 92 93 67 63 64 84 73 77 107 106 115 113 114 119 123 124